Regional Weather Roundup
Issued by NWS

Home | Current Version | Previous Version | Text Only | Print | Product List | Glossary Off
Versions: 1 2 3 4 5 6 7 8 9 10 11 12 13 14 15 16 17 18 19 20 21 22 23 24 25 26 27 28 29 30 31 32 33 34 35 36 37 38 39 40 41 42 43 44 45 46 47 48 49 50

000
ASUS43 KDTX 010310
RWRMI
MICHIGAN HOURLY REGIONAL WEATHER ROUNDUP
NATIONAL WEATHER SERVICE DETROIT/PONTIAC MI
1000 PM EST SAT JAN 31 2015

NOTE: "FAIR" INDICATES FEW OR NO CLOUDS BELOW 12,000 FEET WITH NO
SIGNIFICANT WEATHER AND/OR OBSTRUCTION TO VISIBILITY.

MIZ047>049-052>055-059>063-066>070-074>076-081>083-010400-
SOUTHEAST LOWER MICHIGAN

CITY           SKY/WX    TMP DP  RH WIND       PRES   REMARKS
ADRIAN         CLOUDY    30  24  78 W3        30.18S
ALMA           CLOUDY    28  24  86 N8        30.20R WCI  20
ANN ARBOR      CLOUDY    31  24  75 SW3       30.17F
BAD AXE        CLOUDY    26  21  80 N9        30.19R WCI  17
CARO           CLOUDY    27  22  81 N12       30.19R WCI  17
DETROIT CITY   CLOUDY    34  24  67 SW6       30.18S WCI  29
DETROIT        CLOUDY    32  25  75 SW3       30.18F
FLINT          CLOUDY    32  26  78 NW6       30.18S WCI  26
GROSSE ILE     CLOUDY    32  27  80 CALM      30.17F
HILLSDALE      CLOUDY    31  24  77 CALM      30.15S
HOWELL         CLOUDY    31  22  68 CALM      30.16F

CITY           SKY/WX    TMP DP  RH WIND       PRES   REMARKS
JACKSON        CLOUDY    31  23  72 W5        30.16S WCI  26
LAMBERTVILLE   CLOUDY    32  27  80 CALM      30.18F
LANSING        CLOUDY    31  25  78 NW5       30.18S WCI  26
LAPEER         CLOUDY    30  25  82 N6        30.17S WCI  24
MASON          CLOUDY    31  24  75 CALM      30.16F
MONROE         CLOUDY    32  27  80 CALM      30.17S
MT. CLEMENS    CLOUDY    29  26  88 CALM      30.16S
PONTIAC        CLOUDY    31  20  63 NW3       30.15F
PORT HOPE        N/A     28  19  69 NW9       30.18R WCI  19
PORT HURON     CLOUDY    28  25  86 CALM      30.19R
TRI CITIES     CLOUDY    29  21  72 N9        30.21R WCI  20
TROY           CLOUDY    35  23  63 CALM      30.18F
SAGINAW HB     CLOUDY    28  23  80 N9        30.20R WCI  20
$$
MIZ043>046-050>051-056>058-064>065-071>073-077>080-010400-
SOUTHWEST LOWER MICHIGAN

CITY           SKY/WX    TMP DP  RH WIND       PRES   REMARKS
BATTLE CREEK   CLOUDY    32  24  72 CALM      30.17S
BENTON HARBOR  CLOUDY    31  26  82 CALM      30.17F
BIG RAPIDS     CLOUDY    26  22  82 N5        30.18S WCI  21
COLDWATER      CLOUDY    32  27  83 CALM      30.16S
FREMONT        CLOUDY    28  22  80 NE5       30.20R WCI  22
HOLLAND        CLOUDY    32  24  72 N6        30.18F WCI  26
GRAND RAPIDS   CLOUDY    30  23  75 NW6       30.18S WCI  24
IONIA          CLOUDY    31  26  79 CALM      30.17S
KALAMAZOO      CLOUDY    31  24  75 N6        30.17S WCI  25
LUDINGTON      CLOUDY    28  20  72 NE8       30.22S WCI  20
MARSHALL       CLOUDY    29  22  76 CALM      30.16S
MOUNT PLEASANT CLOUDY    27  21  77 N6        30.20S WCI  21
MUSKEGON       CLOUDY    30  22  72 N8        30.20S WCI  22
SOUTH HAVEN    CLOUDY    32  28  83 NE5       30.17F WCI  27
$$
MIZ016>042-010400-
NORTHERN LOWER MICHIGAN

CITY           SKY/WX    TMP DP  RH WIND       PRES   REMARKS
ALPENA         PTCLDY    18  10  71 NW9       30.23R WCI   7
BEAVER ISLAND  PTCLDY    15  10  79 CALM      30.27F
BELLAIRE       MOCLDY    19  11  72 N5        30.27S WCI  12
CADILLAC       FLURRIES  19  15  82 N8        30.18R WCI   9
CHARLEVOIX     CLOUDY    17   9  68 N10       30.30R WCI   5
FRANKFORT      CLOUDY    22  15  75 N7        30.26R WCI  14
GAYLORD        MOCLDY    13   6  74 VRB6      30.19S WCI   4
GRAYLING       FLURRIES  18  12  77 NW9       30.21R WCI   7
HARBOR SPRINGS CLOUDY    16   7  67 N6        30.26S WCI   7
HOUGHTON LAKE  CLOUDY    21  14  74 N9        30.19R WCI  11
MANISTEE       CLOUDY    25  14  63 NE10G17   30.24S WCI  15
OSCODA         CLOUDY    25  16  70 N12       30.20R WCI  14
PELLSTON       MOCLDY    16   6  65 N10       30.26S WCI   4
TRAVERSE CITY  CLOUDY    22  13  68 N12       30.25R WCI  10
$$
MIZ007>008-015-010400-
EASTERN UPPER MICHIGAN

CITY           SKY/WX    TMP DP  RH WIND       PRES   REMARKS
KINROSS        MOCLDY     9   3  78 N9        30.26R WCI  -5
MACKINAC ISLAN CLOUDY    15   7  72 N13G21    30.25S WCI   0
NEWBERRY       CLOUDY    13   8  79 N6        30.25S WCI   4
S. S. MARIE    PTCLDY     8  -2  63 N7        30.28R WCI  -3
MUNISING         N/A     16   9  74 N14       30.30S WCI   2
$$
MIZ004>006-011>014-085-010400-
CENTRAL UPPER MICHIGAN

CITY           SKY/WX    TMP DP  RH WIND       PRES   REMARKS
MANISTIQUE     FLURRIES  12  10  90 NW3       30.28S
ESCANABA       MOCLDY    12   3  67 NW8       30.31F WCI   1
MENOMINEE      CLOUDY    16   5  62 NE14      30.29S WCI   1
SAWYER-GWINN   LGT SNOW   9   5  85 N12       30.26F WCI  -6
$$
MIZ001>003-009>011-084-010400-
WESTERN UPPER MICHIGAN

CITY           SKY/WX    TMP DP  RH WIND       PRES   REMARKS
IRON MOUNTAIN  CLOUDY    12   3  67 NE12      30.26R WCI  -2
HOUGHTON       LGT SNOW   6   0  76 NE9       30.33F WCI  -8
COPPER HARBOR    N/A     10   4  76 NE16G23   30.37F WCI  -7
IRONWOOD       CLOUDY    12   5  73 NE7       30.26S WCI   2
$$

ABBREVIATIONS USED IN REMARKS
   TC - TEMPERATURE IN CELSIUS
  WCI - WIND CHILL INDEX
   HX - HEAT INDEX
  VSB - VISIBILITY



USA.gov is the U.S. government's official web portal to all federal, state and local government web resources and services.